Location: アルンシュタイン
(50.0000°N, 10.0000°E)
Time: 18:46:50
(UTC+02:00)

deb Explorer IX - Visible Passes

Search period start: 11 September 2024 00:00
Search period end: 21 September 2024 00:00
Orbit: 505 x 849 km, 38.7° (Epoch: 11 September)

Date Brightness Start Highest point End Pass type
(mag) Time Alt. Az. Time Alt. Az. Time Alt. Az.
13 Sep ? 21:13:26 10° S 21:15:30 13° SSE 21:15:30 13° SSE visible
14 Sep ? 21:46:56 10° SSW 21:49:37 19° S 21:49:37 19° S visible
15 Sep ? 20:39:55 10° S 20:43:19 16° SSE 20:45:15 14° SE visible
15 Sep ? 22:21:22 10° SW 22:23:30 19° SSW 22:23:30 19° SSW visible
16 Sep ? 21:13:41 10° SW 21:18:08 22° SSE 21:18:57 22° SSE visible
16 Sep ? 22:56:15 10° WSW 22:57:12 14° SW 22:57:12 14° SW visible
17 Sep ? 20:06:21 10° SSW 20:10:09 18° SSE 20:13:58 10° ESE visible
17 Sep ? 21:48:10 10° SW 21:52:29 26° S 21:52:29 26° S visible
18 Sep ? 20:40:16 10° SW 20:44:52 24° SSE 20:47:39 17° SE visible
18 Sep ? 22:23:00 10° WSW 22:25:52 22° SW 22:25:52 22° SW visible
19 Sep ? 21:14:44 10° SW 21:19:35 27° S 21:20:54 25° SSE visible
19 Sep ? 22:58:06 10° WSW 22:59:07 14° WSW 22:59:07 14° WSW visible
20 Sep ? 20:06:41 10° SW 20:11:19 25° S 20:15:51 11° ESE visible
20 Sep ? 21:49:31 10° WSW 21:54:04 25° SSW 21:54:04 25° SSW visible
